Weather History for KHST - November, 2011

Change the Weather History Date:

Friday, November 11, 2011

  Actual Average Record
Temperature  
Mean Temperature 68 °F -  
Max Temperature 75 °F 81 °F 88 °F (1952)
Min Temperature 61 °F 63 °F 45 °F (1962)
Cooling Degree Days 4    
Growing Degree Days 18 (Base 50)    
Moisture  
Dew Point 60 °F    
Average Humidity 76    
Maximum Humidity 94    
Minimum Humidity 54    
Precipitation  
Precipitation 0.00 in - - ()
Sea Level Pressure  
Sea Level Pressure 30.05 in    
Wind  
Wind Speed 9 mph (North)    
Max Wind Speed 17 mph    
Max Gust Speed -    
Visibility 10 miles    
Events      
Averages and records for this station are not official NWS values.
T = Trace of Precipitation, MM = Missing Value Source: NWS Daily Summary

Daily Weather History Graph

Daily Weather History Graph

Search for Another Location

Airport or City:

Trip Planner

Search our weather history database for the weather conditions in past years. The results will help you decide how hot, cold, wet, or windy it might be!

Date:

Astronomy

Nov. 11, 2011 Rise Set
Actual Time 6:35 AM EST 5:34 PM EST
Civil Twilight 6:11 AM EST 5:58 PM EST
Nautical Twilight 5:44 AM EST 6:26 PM EST
Astronomical Twilight 5:17 AM EST 6:53 PM EST
Moon 6:11 PM EST (11/11) 7:14 AM EST (11/11)
Length of Visible Light 11h 46m
Length of Day
10h 58m
Full, 99% of the Moon is Illuminated
Nov 11
Full
Nov 18
Last Quarter
Nov 25
New
Dec 2
First Quarter
Dec 10
Full

Hourly Weather History & Observations

Time (EST) Temp. Dew Point Humidity Pressure Visibility Wind Dir Wind Speed Gust Speed Precip Events Conditions
12:55 AM 64.0 °F 60.3 °F 87% 29.96 in 10.0 mi NW 6.9 mph - N/A   Clear
1:55 AM 64.6 °F 59.4 °F 83% 29.95 in 10.0 mi NNW 5.8 mph - N/A   Clear
2:55 AM 62.8 °F 59.0 °F 87% 29.94 in 10.0 mi NW 5.8 mph - N/A   Clear
3:55 AM 63.9 °F 59.4 °F 85% 29.94 in 10.0 mi Calm Calm - N/A   Clear
4:55 AM 64.4 °F 61.2 °F 89% 29.98 in 10.0 mi NW 6.9 mph - N/A   Clear
5:55 AM 64.2 °F 62.1 °F 93% 30.01 in 10.0 mi NNW 9.2 mph - N/A   Clear
6:55 AM 65.5 °F 62.8 °F 91% 30.03 in 10.0 mi North 6.9 mph - N/A   Partly Cloudy
7:22 AM 66.2 °F 64.4 °F 94% 30.04 in 10.0 mi NNW 10.4 mph - N/A   Mostly Cloudy
7:29 AM 66.2 °F 64.4 °F 94% 30.04 in 10.0 mi NNW 12.7 mph - N/A   Mostly Cloudy
7:55 AM 67.3 °F 63.3 °F 87% 30.05 in 10.0 mi North 11.5 mph - N/A   Overcast
8:16 AM 68.0 °F 64.4 °F 88% 30.06 in 10.0 mi North 10.4 mph - N/A   Scattered Clouds
8:39 AM 68.0 °F 62.6 °F 83% 30.06 in 10.0 mi North 13.8 mph - N/A   Mostly Cloudy
8:47 AM 68.0 °F 62.6 °F 83% 30.06 in 10.0 mi North 12.7 mph - N/A   Mostly Cloudy
8:55 AM 68.2 °F 63.1 °F 84% 30.07 in 10.0 mi North 12.7 mph - N/A   Mostly Cloudy
9:55 AM 67.3 °F 58.5 °F 73% 30.09 in 10.0 mi North 13.8 mph - N/A   Mostly Cloudy
10:29 AM 69.8 °F 59.0 °F 68% 30.09 in 10.0 mi NNW 16.1 mph - N/A   Scattered Clouds
10:55 AM 70.5 °F 59.2 °F 67% 30.08 in 10.0 mi North 15.0 mph - N/A   Clear
11:55 AM 72.3 °F 57.6 °F 60% 30.07 in 10.0 mi NNE 11.5 mph - N/A   Clear
12:55 PM 72.9 °F 56.3 °F 56% 30.05 in 10.0 mi North 12.7 mph - N/A   Clear
1:55 PM 74.7 °F 57.0 °F 54% 30.04 in 10.0 mi North 12.7 mph - N/A   Clear
2:55 PM 75.2 °F 60.1 °F 59% 30.05 in 10.0 mi ENE 9.2 mph - N/A   Clear
3:55 PM 74.3 °F 60.8 °F 63% 30.05 in 10.0 mi NE 12.7 mph - N/A   Clear
4:55 PM 72.1 °F 60.3 °F 66% 30.06 in 10.0 mi NE 17.3 mph - N/A   Clear
5:55 PM 70.0 °F 57.9 °F 65% 30.08 in 10.0 mi NNE 11.5 mph - N/A   Clear
6:55 PM 68.9 °F 56.8 °F 65% 30.10 in 10.0 mi NNE 12.7 mph - N/A   Clear
7:55 PM 67.8 °F 55.9 °F 66% 30.11 in 10.0 mi North 12.7 mph - N/A   Clear
8:55 PM 66.4 °F 56.3 °F 70% 30.13 in 10.0 mi North 9.2 mph - N/A   Clear
9:55 PM 64.6 °F 56.3 °F 74% 30.14 in 10.0 mi North 11.5 mph - N/A   Clear
10:55 PM 63.9 °F 56.3 °F 76% 30.15 in 10.0 mi North 9.2 mph - N/A   Clear
11:55 PM 61.7 °F 56.7 °F 84% 30.15 in 10.0 mi North 5.8 mph - N/A   Clear